Regional Weather Roundup
Issued by NWS Charleston, SC

Current Version | Previous Version | Graphics & Text | Print | Product List | Glossary On
Versions: 1 2 3 4 5 6 7 8 9 10 11 12 13 14 15 16 17 18 19 20 21 22 23 24 25 26 27 28 29 30 31 32 33 34 35 36 37 38 39 40 41 42 43 44 45 46 47 48 49 50
000
ASUS42 KCHS 211612
RWRCHS

REGIONAL WEATHER ROUNDUP
NATIONAL WEATHER SERVICE CHARLESTON SC
1200 PM EDT MON AUG 21 2017

NOTE: "FAIR" INDICATES FEW OR NO CLOUDS BELOW 12,000 FEET WITH NO
SIGNIFICANT WEATHER AND/OR OBSTRUCTIONS TO VISIBILITY.

NOT ALL STATIONS ARE QUALITY CONTROLLED. USE DATA WITH CAUTION...
ESPECIALLY DEWPOINT OBSERVATIONS.

SCZ027-030-031-034>040-042>050-211700-
...SOUTHEAST SOUTH CAROLINA...

CITY           SKY/WX    TMP DP  RH WIND       PRES   REMARKS
N CHARLESTON   PTSUNNY   89  77  67 E9        30.18S HX 101
WATERFRONT PRK   N/A     87  78  74 E6        30.04R HX 100
JOHNS ISLAND   PTSUNNY   86  79  79 E7        30.18F HX  99
PINOPOLIS        N/A     86  79  79 VRB3      30.12S HX  99
MONCKS CORNER  FAIR      84  75  74 N5        30.18S HX  92
SUMMERVILLE    FAIR      88  73  62 CALM      30.20S HX  96
BEAUFORT MCAS  CLOUDY    88  78  72 E7        30.18F HX 101
BEAUFORT ARPT  PTSUNNY   84  77  79 S7        30.18S HX  94
HILTON HEAD IS PTSUNNY   86  77  74 NE8       30.19S HX  97
WALTERBORO     MOSUNNY   88  73  62 E8        30.19F HX  96
ALLENDALE      NOT AVBL

...SOUTHERN MIDLANDS AND PEE DEE...

CITY           SKY/WX    TMP DP  RH WIND       PRES   REMARKS
GEORGETOWN     FAIR      86  73  66 E7        30.21S HX  93
KINGSTREE      FAIR      86  75  70 CALM      30.20S HX  95
ORANGEBURG     MOSUNNY   89  72  56 E6        30.20S HX  96
BARNWELL       FAIR      90  75  62 NE9       30.19S HX 100
AIKEN          FAIR      88  72  58 SE3       30.24S HX  94
MANNING        FAIR      88  79  74 NE9       30.20S HX 102
COLUMBIA       MOSUNNY   91  72  53 E6        30.19S HX  98
SUMTER         PTSUNNY   88  72  59 E5        30.18R HX  94
FLORENCE       PTSUNNY   90  74  59 E7        30.20S HX  99
MYRTLE BEACH   PTSUNNY   84  77  79 E14       30.21R HX  94
N MYRTLE BEACH CLOUDY    86  76  71 NE7       30.20R HX  96

$$

GAZ063-065-086>088-099>101-113>116-118-119-134>141-150-211700-
...SOUTHEAST GEORGIA...

CITY           SKY/WX    TMP DP  RH WIND       PRES   REMARKS
SAVANNAH ARPT  CLOUDY    89  74  60 E9        30.18R HX  98
HUNTER AAF     NOT AVBL
FORT STEWART   PTSUNNY   86  75  69 SE7       30.16R HX  95
STATESBORO     MOSUNNY   91  69  48 E5        30.19S HX  95
SYLVANIA       PTSUNNY   89  77  69 E3        30.19F HX 101
CLAXTON        FAIR      87  76  69 CALM      30.18S HX  98

...CSRA...CENTRAL AND FAR SOUTHEAST GEORGIA...

CITY           SKY/WX    TMP DP  RH WIND       PRES   REMARKS
THOMSON        SUNNY     87  73  64 S3        30.25S HX  94
AUGUSTA-BUSH   MOSUNNY   90  76  63 E3        30.18S HX 101
AUGUSTA-DANIEL SUNNY     88  71  57 SE5       30.20F HX  94
SWAINSBORO       N/A     90  72  55 SE6       30.20S HX  96
VIDALIA        SUNNY     91  73  55 E6        30.19R HX 100
EASTMAN        FAIR      91  59  33 S7        30.21R HX  90
HAZLEHURST     PTSUNNY   90  64  41 SE7       30.17S HX  91
ALMA           PTSUNNY   90  74  59 VRB6      30.18R HX  99
WAYCROSS       CLOUDY    87  73  63 SE10      30.18S HX  94
JESUP          FAIR      86  75  70 SE3       30.19R HX  95
BAXLEY         PTSUNNY   86  73  66 E6        30.18R HX  93
BRUNSWICK      LGT RAIN  77  73  88 CALM      30.21R
SAINT SIMONS   CLOUDY    80  77  90 CALM      30.19R

$$

SCZ027-028-034-036>038-045-046-048>050-GAZ119-141-211700-
...LAKE AND SUPPLEMENTAL COASTAL OBSERVATIONS...

STATION/POSITION TIME  TEMP    WIND        PRES    WAVE   SWELL
                       AIR SEA DIR/SP/G            HT/PER HT/PER/DIR
                 (UTC) (F)     (DEG/KT/KT) (MB)    (FT/S) (FT/S/D)
WINYAH BAY       1445   80      80/  9     1022.0
LAKE MURRAY      1520   89     160/  2/  3 1021.7R
ACE BASIN NERRS  1445   87      40/  2     1022.0
FORT PULASKI     1548   85 87   90/  9/ 11 1022.5R
SAPELO ISLAND    1500   84        CALM     1022.0

$$

ANZ835-935-AMZ111-154-330-350-352-354-370-450-454-472-211700-
...C-MAN AND BUOY OBSERVATIONS...

STATION/POSITION TIME  TEMP    WIND        PRES    WAVE   SWELL
                       AIR SEA DIR/SP/G            HT/PER HT/PER/DIR
                 (UTC) (F)     (DEG/KT/KT) (MB)    (FT/S) (FT/S/D)
BUOY 41004       1550   83 85   60/  6/ 10 1021.8R   3/ 8   2/140/ 8
BUOY 41008       1550   83 85  100/ 10/ 12 1021.7R   2/ 9   2/110/ 9
FOLLY BEACH CMAN 1600   85      60/  7/  9 1022.8S
CAPERS NEARSHORE 1508   83 86   50/  8/ 12 1022.0R
FRIPP NEARSHORE  1508   82     130/  6/ 10 1021.8R


STATION/POSITION TIME  TEMP    WIND        PRES    WAVE   SWELL
                       AIR SEA DIR/SP/G            HT/PER HT/PER/DIR
                 (UTC) (F)     (DEG/KT/KT) (MB)    (FT/S) (FT/S/D)
5E ST. MARYS GA  1530      84                N/A     2/ 9
FRYING PAN BUOY  1550   83 84   90/  6/ 10 1022.5R   2/ 9   2/140/ 9
BUOY 41025       1550   84 85  110/ 10/ 12 1023.2R   2/ 9   2/ 80/ 9
CAPE LOOKOUT NC  1500   81      60/  9/ 11 1023.0R
BUOY 41002       1550   83 85  110/  8/ 10 1022.8F   3/ 8   3/100/ 8
BUOY 41010       1550   85 85  110/  8/ 12 1021.1R   3/ 9   3/110/ 9
ST AUGUSTINE FL  1600   83 82  130/  9/ 10 1021.7F


$$



USA.gov is the U.S. government's official web portal to all federal, state and local government web resources and services.